TimeEST,TemperatureF,Dew PointF,Humidity,Sea Level PressureIn,VisibilityMPH,Wind Direction,Wind SpeedMPH,Gust SpeedMPH,PrecipitationIn,Events,Conditions,WindDirDegrees,DateUTC
12:53 AM,75.0,64.9,71,29.99,10.0,NE,18.4,23.0,N/A,,Scattered Clouds,40,2011-11-06 04:53:00
1:53 AM,75.0,64.9,71,29.99,10.0,NE,20.7,27.6,N/A,,Mostly Cloudy,40,2011-11-06 05:53:00
1:53 AM,75.0,62.1,64,29.99,10.0,NE,16.1,27.6,N/A,,Overcast,40,2011-11-06 06:53:00
2:53 AM,75.0,59.0,57,29.99,10.0,NE,15.0,24.2,N/A,,Mostly Cloudy,50,2011-11-06 07:53:00
3:53 AM,75.9,60.1,58,30.00,10.0,ENE,12.7,21.9,N/A,,Mostly Cloudy,60,2011-11-06 08:53:00
4:53 AM,75.0,61.0,62,30.01,10.0,ENE,11.5,-,N/A,,Mostly Cloudy,60,2011-11-06 09:53:00
5:53 AM,73.0,64.9,76,30.03,10.0,NE,13.8,-,0.01,,Overcast,50,2011-11-06 10:53:00
6:53 AM,73.9,66.0,76,30.04,10.0,NE,12.7,-,N/A,,Mostly Cloudy,50,2011-11-06 11:53:00
7:53 AM,73.9,68.0,82,30.07,10.0,NNE,9.2,-,0.01,,Mostly Cloudy,30,2011-11-06 12:53:00
8:53 AM,73.9,66.9,79,30.09,10.0,ENE,13.8,23.0,0.00,,Mostly Cloudy,60,2011-11-06 13:53:00
9:53 AM,78.1,68.0,71,30.09,10.0,ENE,17.3,-,0.00,,Mostly Cloudy,60,2011-11-06 14:53:00
10:53 AM,80.1,66.0,62,30.09,10.0,ENE,16.1,21.9,N/A,,Mostly Cloudy,60,2011-11-06 15:53:00
11:53 AM,80.1,66.0,62,30.09,10.0,NE,17.3,24.2,N/A,,Mostly Cloudy,50,2011-11-06 16:53:00
12:53 PM,80.1,66.9,64,30.07,10.0,ENE,17.3,25.3,N/A,,Mostly Cloudy,70,2011-11-06 17:53:00
1:53 PM,80.1,66.0,62,30.06,10.0,ENE,18.4,25.3,N/A,,Mostly Cloudy,60,2011-11-06 18:53:00
2:53 PM,80.1,64.9,60,30.05,10.0,ENE,16.1,-,N/A,,Scattered Clouds,60,2011-11-06 19:53:00
3:53 PM,79.0,66.0,64,30.05,10.0,ENE,16.1,25.3,N/A,,Mostly Cloudy,60,2011-11-06 20:53:00
4:53 PM,75.0,66.0,73,30.06,10.0,NE,19.6,25.3,N/A,,Mostly Cloudy,50,2011-11-06 21:53:00
5:53 PM,71.1,68.0,90,30.07,10.0,Calm,Calm,-,0.00,,Mostly Cloudy,0,2011-11-06 22:53:00
6:53 PM,77.0,62.1,60,30.09,10.0,NE,19.6,24.2,N/A,,Mostly Cloudy,50,2011-11-06 23:53:00
7:53 PM,75.9,63.0,64,30.10,10.0,NE,16.1,21.9,0.00,,Mostly Cloudy,50,2011-11-07 00:53:00
8:53 PM,75.9,61.0,60,30.11,10.0,ENE,12.7,-,N/A,,Scattered Clouds,60,2011-11-07 01:53:00
9:53 PM,75.0,63.0,66,30.11,10.0,ENE,10.4,-,N/A,,Scattered Clouds,70,2011-11-07 02:53:00
10:53 PM,75.0,63.0,66,30.10,10.0,ENE,13.8,21.9,N/A,,Scattered Clouds,70,2011-11-07 03:53:00